Richlands, VA

11:15 AM EDT on August 21, 2017 (GMT -0400)
Tazewell County

Weather History for KJFZ - February, 2013

Change the Weather History Date:

Sunday, February 17, 2013

  Actual Average (KBLF) Record (KBLF)
Temperature  
Mean Temperature 19 °F -  
Max Temperature 26 °F 40 °F 66 °F (2011)
Min Temperature 12 °F 26 °F -1 °F (1973)
Degree Days  
Heating Degree Days 46    
Moisture  
Dew Point 8 °F    
Average Humidity 66    
Maximum Humidity 100    
Minimum Humidity 34    
Precipitation  
Precipitation 0.00 in - - ()
Sea Level Pressure  
Sea Level Pressure 30.02 in    
Wind  
Wind Speed 10 mph (WNW)    
Max Wind Speed 17 mph    
Max Gust Speed 29 mph    
Visibility 7 miles    
Events      
Averages and records for this station are not official NWS values.
T = Trace of Precipitation, MM = Missing Value Source: NWS Daily Summary

Daily Weather History Graph

Daily Weather History Graph

Search for Another Location

Airport or City:

Trip Planner

Search our weather history database for the weather conditions in past years. The results will help you decide how hot, cold, wet, or windy it might be!

Date:

Astronomy

Feb. 17, 2013 Rise Set
Actual Time 7:13 AM EST 6:09 PM EST
Civil Twilight 6:46 AM EST 6:36 PM EST
Nautical Twilight 6:16 AM EST 7:06 PM EST
Astronomical Twilight 5:46 AM EST 7:36 PM EST
Moon 11:16 AM EST (2/17) 12:53 AM EST (2/17)
Length of Visible Light 11h 49m
Length of Day
10h 56m
Waxing Crescent, 49% of the Moon is Illuminated
Feb 17
Waxing Crescent
Feb 17
First Quarter
Feb 25
Full
Mar 4
Last Quarter
Mar 11
New

Hourly Weather History & Observations

Time (EST) Temp. Windchill Dew Point Humidity Pressure Visibility Wind Dir Wind Speed Gust Speed Precip Events Conditions
12:15 AM 19.4 °F 12.8 °F 15.8 °F 86% 29.90 in 8.0 mi Variable 4.6 mph - N/A   Unknown
12:35 AM 17.6 °F 5.7 °F 15.8 °F 93% 29.90 in 4.0 mi WNW 10.4 mph - N/A   Clear
12:55 AM 17.6 °F 3.7 °F 15.8 °F 93% 29.89 in 1.5 mi West 13.8 mph - N/A   Clear
1:15 AM 15.8 °F 3.4 °F 15.8 °F 100% 29.91 in 1.5 mi West 10.4 mph - N/A   Clear
1:35 AM 17.6 °F 7.3 °F 15.8 °F 93% 29.90 in 1.5 mi WNW 8.1 mph - N/A   Clear
1:55 AM 15.8 °F 4.2 °F 14.0 °F 93% 29.91 in 10.0 mi WNW 9.2 mph - N/A   Unknown
2:15 AM 17.6 °F 8.2 °F 14.0 °F 86% 29.92 in 8.0 mi WNW 6.9 mph - N/A   Unknown
2:35 AM 15.8 °F 2.1 °F 12.2 °F 86% 29.91 in 3.0 mi NW 12.7 mph - N/A   Unknown
2:55 AM 15.8 °F 0.3 °F 10.4 °F 79% 29.92 in 4.0 mi WNW 16.1 mph - N/A   Partly Cloudy
3:15 AM 14.0 °F 0.5 °F 10.4 °F 86% 29.93 in 4.0 mi West 11.5 mph - N/A   Unknown
3:35 AM 14.0 °F -1.4 °F 10.4 °F 86% 29.92 in 7.0 mi WNW 15.0 mph - N/A   Unknown
3:55 AM 14.0 °F -2.5 °F 6.8 °F 73% 29.93 in 8.0 mi WNW 17.3 mph - N/A   Unknown
4:15 AM 14.0 °F 1.2 °F 5.0 °F 67% 29.93 in 10.0 mi WNW 10.4 mph - N/A   Partly Cloudy
4:35 AM 14.0 °F 2.0 °F 6.8 °F 73% 29.93 in 10.0 mi WNW 9.2 mph - N/A   Partly Cloudy
4:55 AM 14.0 °F 2.9 °F 6.8 °F 73% 29.94 in 10.0 mi WNW 8.1 mph - N/A   Partly Cloudy
5:15 AM 12.2 °F -1.0 °F 6.8 °F 79% 29.94 in 10.0 mi West 10.4 mph - N/A   Partly Cloudy
5:35 AM 12.2 °F -0.2 °F 8.6 °F 85% 29.95 in 6.0 mi WNW 9.2 mph - N/A   Unknown
5:55 AM 12.2 °F 0.7 °F 8.6 °F 85% 29.96 in 9.0 mi WNW 8.1 mph - N/A   Unknown
6:15 AM 12.2 °F 1.7 °F 10.4 °F 92% 29.95 in 9.0 mi WNW 6.9 mph - N/A   Partly Cloudy
6:35 AM 12.2 °F 0.7 °F 10.4 °F 92% 29.97 in 6.0 mi West 8.1 mph - N/A   Scattered Clouds
6:55 AM 12.2 °F 1.7 °F 10.4 °F 92% 29.97 in 5.0 mi WNW 6.9 mph - N/A   Partly Cloudy
7:15 AM 12.2 °F 2.9 °F 10.4 °F 92% 29.97 in 6.0 mi WNW 5.8 mph - N/A   Partly Cloudy
7:35 AM 12.2 °F 1.7 °F 12.2 °F 100% 29.99 in 7.0 mi Variable 6.9 mph - N/A   Unknown
8:15 AM 12.2 °F 4.3 °F 12.2 °F 100% 30.00 in 3.0 mi WNW 4.6 mph - N/A   Partly Cloudy
8:35 AM 14.0 °F 3.9 °F 12.2 °F 93% 30.01 in 2.5 mi WNW 6.9 mph - N/A   Partly Cloudy
8:55 AM 14.0 °F 1.2 °F 12.2 °F 93% 30.01 in 1.2 mi West 10.4 mph - N/A   Mostly Cloudy
9:15 AM 14.0 °F 2.0 °F 12.2 °F 93% 30.01 in 1.2 mi WNW 9.2 mph - N/A   Clear
9:35 AM 14.0 °F 5.1 °F 14.0 °F 100% 30.02 in 0.5 mi WNW 5.8 mph - N/A   Unknown
9:55 AM 14.0 °F -0.8 °F 12.2 °F 93% 30.01 in 0.8 mi WNW 13.8 mph - N/A   Unknown
10:15 AM 15.8 °F 2.1 °F 12.2 °F 86% 30.02 in 0.5 mi WNW 12.7 mph - N/A   Unknown
10:35 AM 15.8 °F 2.7 °F 12.2 °F 86% 30.04 in 2.0 mi West 11.5 mph - N/A   Clear
10:55 AM 15.8 °F 0.9 °F 12.2 °F 86% 30.04 in 1.5 mi WNW 15.0 mph - N/A   Clear
11:15 AM 17.6 °F 4.3 °F 10.4 °F 73% 30.05 in 3.0 mi WNW 12.7 mph - N/A   Partly Cloudy
11:35 AM 17.6 °F 2.7 °F 10.4 °F 73% 30.06 in 3.0 mi NW 16.1 mph - N/A   Unknown
11:55 AM 19.4 °F 6.0 °F 10.4 °F 68% 30.05 in 10.0 mi WNW 13.8 mph - N/A   Clear
12:15 PM 21.2 °F 7.3 °F 12.2 °F 68% 30.04 in 6.0 mi West 16.1 mph - N/A   Partly Cloudy
12:35 PM 19.4 °F 5.0 °F 10.4 °F 68% 30.04 in 10.0 mi West 16.1 mph - N/A   Scattered Clouds
12:55 PM 21.2 °F 9.5 °F 8.6 °F 58% 30.04 in 10.0 mi WNW 11.5 mph - N/A   Scattered Clouds
1:15 PM 21.2 °F 7.8 °F 8.6 °F 58% 30.04 in 6.0 mi West 15.0 mph 28.8 mph N/A   Scattered Clouds
1:55 PM 21.2 °F 6.8 °F 8.6 °F 58% 30.03 in 10.0 mi WNW 17.3 mph - N/A   Clear
2:15 PM 23.0 °F 10.6 °F 6.8 °F 50% 30.02 in 10.0 mi West 13.8 mph - N/A   Clear
2:35 PM 24.8 °F 14.0 °F 6.8 °F 46% 30.04 in 10.0 mi WNW 11.5 mph - N/A   Clear
2:55 PM 24.8 °F 11.9 °F 6.8 °F 46% 30.04 in 10.0 mi West 16.1 mph - N/A   Clear
3:15 PM 24.8 °F 16.1 °F 6.8 °F 46% 30.04 in 10.0 mi West 8.1 mph - N/A   Clear
3:35 PM 24.8 °F 14.6 °F 6.8 °F 46% 30.04 in 10.0 mi WNW 10.4 mph - N/A   Clear
3:55 PM 26.6 °F 16.2 °F 6.8 °F 43% 30.04 in 10.0 mi West 11.5 mph - N/A   Clear
4:15 PM 26.6 °F 16.2 °F 5.0 °F 40% 30.05 in 10.0 mi West 11.5 mph - N/A   Clear
4:35 PM 26.6 °F 17.5 °F 5.0 °F 40% 30.05 in 10.0 mi WNW 9.2 mph - N/A   Clear
4:55 PM 26.6 °F 15.7 °F 1.4 °F 34% 30.06 in 10.0 mi West 12.7 mph - N/A   Clear
5:15 PM 24.8 °F 12.9 °F 1.4 °F 36% 30.05 in 10.0 mi West 13.8 mph - N/A   Clear
5:35 PM 24.8 °F 15.3 °F 1.4 °F 36% 30.06 in 10.0 mi West 9.2 mph - N/A   Clear
5:55 PM 24.8 °F 16.9 °F 1.4 °F 36% 30.08 in 10.0 mi Variable 6.9 mph - N/A   Clear
6:15 PM 24.8 °F 16.9 °F 1.4 °F 36% 30.08 in 10.0 mi West 6.9 mph - N/A   Clear
6:35 PM 23.0 °F 17.0 °F 1.4 °F 39% 30.08 in 10.0 mi WNW 4.6 mph - N/A   Clear
6:55 PM 23.0 °F 17.0 °F 1.4 °F 39% 30.10 in 10.0 mi WNW 4.6 mph - N/A   Clear
7:15 PM 23.0 °F 15.8 °F 1.4 °F 39% 30.10 in 10.0 mi WNW 5.8 mph - N/A   Clear
7:35 PM 21.2 °F 13.6 °F 1.4 °F 42% 30.10 in 10.0 mi WNW 5.8 mph - N/A   Clear
7:55 PM 21.2 °F 12.6 °F 1.4 °F 42% 30.12 in 10.0 mi WNW 6.9 mph - N/A   Clear
8:15 PM 21.2 °F 16.4 °F 1.4 °F 42% 30.12 in 10.0 mi West 3.5 mph - N/A   Clear
8:35 PM 21.2 °F 13.6 °F -0.4 °F 39% 30.11 in 10.0 mi West 5.8 mph - N/A   Clear
8:55 PM 21.2 °F 13.6 °F 1.4 °F 42% 30.13 in 10.0 mi West 5.8 mph - N/A   Clear
9:15 PM 21.2 °F 14.9 °F 1.4 °F 42% 30.13 in 10.0 mi West 4.6 mph - N/A   Clear
9:35 PM 21.2 °F 16.4 °F 1.4 °F 42% 30.13 in 10.0 mi West 3.5 mph - N/A   Clear
9:55 PM 21.2 °F 14.9 °F 1.4 °F 42% 30.14 in 10.0 mi West 4.6 mph - N/A   Clear
10:15 PM 21.2 °F 16.4 °F 1.4 °F 42% 30.15 in 10.0 mi West 3.5 mph - N/A   Clear
10:35 PM 21.2 °F 14.9 °F 1.4 °F 42% 30.14 in 10.0 mi West 4.6 mph - N/A   Clear
10:55 PM 21.2 °F 14.9 °F 1.4 °F 42% 30.15 in 10.0 mi West 4.6 mph - N/A   Clear
11:55 PM 21.2 °F 14.9 °F 1.4 °F 42% 30.15 in 10.0 mi West 4.6 mph - N/A   Clear